User: anonymous   Login
Location: Unspecified
(0.0000°N, 0.0000°E)
Time: 08:57:07
(UTC+00:00)
Language:

POLYITAN 1 - Orbit

View from above orbital plane
View from above orbital plane
View from above satellite
View from above satellite

Ground track
Ground track

The orbit data is extracted from the following two-line orbital elements,

1 40042U 14033AJ  17204.90046064 +.00000281 +00000-0 +36634-4 0  9991
2 40042 097.9177 115.9307 0014939 167.1068 193.0533 14.88078512167375
Epoch (UTC): 23 July 2017 21:36:39
Eccentricity: 0.0014939
inclination: 97.9177°
perigee height: 593 km
apogee height: 614 km
right ascension of ascending node: 115.9307°
argument of perigee: 167.1068°
revolutions per day: 14.88078512
mean anomaly at epoch: 193.0533°
orbit number at epoch: 16737

The dashed part of the orbit path shows where the satellite is in the earth's shadow,  

DLR